Wind_Speed
13 12 12 13 14 15 16 16 17 17 17 17 16 16 16 16 15 15 15 16 16 17 18 18 18 18 19 20 22 23 25 26 26 26 26 25 24 23 23 22 22 21 21 21 20 20 20 20 20 19 19 19 19 19 19 18 18 18 19 19 20 21 22 24 26 27 29 30 30 31 32 32 32 31 31 31 32 33 34 34 34 35 36 36 36 37
14 14 14 14 14 15 15 16 16 16 16 16 16 17 17 18 18 17 16 16 17 17 18 18 19 20 20 20 21 23 24 25 26 27 27 27 26 26 25 25 25 24 24 23 23 23 23 23 23 22 22 22 22 22 22 22 22 22 22 22 22 22 23 24 25 27 28 28 29 29 30 30 31 31 31 31 32 32 33 33 33 34 35 35 36 36
17 17 17 17 16 17 17 18 18 18 17 16 16 16 16 17 18 19 18 18 18 18 19 19 20 20 21 21 21 22 23 24 25 26 27 28 28 28 28 28 28 28 27 27 27 27 27 27 26 26 26 26 26 26 26 26 26 26 26 26 26 26 26 26 27 28 29 30 30 30 30 30 31 31 32 32 33 33 32 32 32 32 33 33 34 35
20 20 20 20 19 19 20 21 21 21 20 19 17 16 15 16 17 18 19 20 19 19 20 21 22 21 21 22 22 23 23 24 25 26 27 28 28 28 29 29 30 30 30 30 30 31 31 31 31 30 30 29 30 30 30 30 30 30 30 31 31 31 31 31 31 32 33 34 34 34 34 34 34 34 34 34 35 35 33 32 32 32 33 33 33 33
22 23 23 23 22 23 23 24 24 24 24 23 22 19 17 16 16 17 18 20 21 21 21 22 24 25 24 24 24 24 25 25 26 27 28 28 29 29 30 31 31 32 33 33 33 33 34 34 34 34 34 34 33 33 33 33 33 33 33 34 34 35 35 36 36 36 37 37 38 38 39 39 38 38 38 38 38 38 37 36 35 34 34 35 35 34
25 25 25 25 25 25 25 26 27 27 27 27 26 24 22 20 19 19 18 20 21 22 22 22 23 27 28 27 26 26 26 27 28 28 29 30 30 31 31 32 33 33 34 35 35 36 36 36 37 37 37 37 37 36 36 36 36 36 36 36 36 37 37 39 39 40 40 41 41 42 42 43 43 42 42 41 41 42 41 40 38 38 37 37 37 36
27 27 27 27 27 27 27 28 29 30 30 30 30 29 27 25 23 22 21 21 21 22 23 23 22 25 29 30 29 28 28 28 29 30 31 32 32 33 33 34 34 35 36 37 37 37 38 38 39 39 39 39 39 40 40 40 40 40 40 39 38 39 39 40 41 42 43 43 44 45 46 46 47 47 46 45 44 45 44 43 41 41 41 41 40 39
29 29 30 30 29 29 30 30 31 32 32 32 33 32 31 30 28 26 24 23 22 22 24 24 23 24 27 31 31 29 29 29 31 32 32 33 34 34 35 36 36 37 38 39 39 39 40 40 41 41 41 41 42 42 43 43 43 43 42 42 41 41 42 43 43 44 45 45 46 47 48 49 50 50 50 49 48 48 48 47 45 44 45 45 45 44
32 32 32 32 32 32 32 33 34 34 34 35 35 35 35 34 32 31 28 26 24 24 25 26 25 24 26 32 33 31 31 32 32 33 34 34 35 36 37 38 38 39 40 41 41 42 42 42 42 43 43 44 44 45 45 45 45 44 44 43 43 43 44 45 45 45 46 47 47 48 50 51 53 53 52 52 52 52 52 51 50 49 49 49 49 49
34 34 34 34 34 34 35 35 36 37 37 37 38 38 38 37 36 35 34 31 28 27 27 27 27 26 27 32 36 33 33 34 34 35 36 36 37 37 38 39 40 41 42 43 44 45 45 45 45 45 45 46 46 47 47 47 46 46 45 45 45 46 46 47 47 47 48 48 49 50 52 53 54 55 55 55 55 55 55 55 54 53 53 53 53 53
37 37 37 38 37 37 37 38 39 40 40 40 40 40 40 39 39 39 38 36 33 31 31 30 29 29 29 33 37 36 35 36 36 37 38 38 38 39 40 41 42 43 44 45 46 47 47 47 47 48 48 48 48 48 48 48 48 47 47 47 47 48 49 49 50 50 51 51 52 53 54 55 56 57 57 58 57 57 57 56 56 56 56 56 56 56
40 41 41 41 40 40 41 41 42 43 43 43 43 42 42 42 41 42 41 41 39 35 34 34 33 31 32 35 37 38 38 38 39 40 40 40 41 41 41 42 43 44 45 47 48 49 49 50 50 51 51 51 51 50 50 50 49 49 49 49 49 50 51 51 52 53 54 54 55 55 56 56 57 58 59 59 59 59 59 58 58 59 59 59 59 60
43 44 45 44 44 43 44 44 45 46 46 46 47 45 44 44 44 44 44 44 44 41 37 37 36 35 36 38 39 40 41 41 42 42 43 43 44 44 44 44 45 46 47 49 50 51 52 52 53 53 53 54 53 53 53 52 51 51 51 51 52 52 53 54 55 56 56 57 57 58 58 58 59 60 60 60 60 61 61 61 61 62 63 63 63 63
46 47 47 47 47 47 48 48 48 48 49 49 50 49 48 48 46 46 47 47 47 45 41 40 40 38 39 40 41 43 43 44 44 45 46 46 47 47 46 46 47 48 50 51 52 53 54 55 55 56 56 56 56 55 55 54 54 53 53 54 54 55 56 56 57 58 59 59 59 59 60 60 61 62 62 62 63 63 63 64 64 65 66 66 66 66
49 50 50 50 50 50 51 52 52 52 51 51 52 52 51 51 50 49 50 50 50 48 44 42 43 42 42 42 43 46 48 47 47 47 48 49 49 49 49 49 50 51 52 53 54 55 56 57 57 58 57 57 57 57 56 56 55 55 55 55 57 58 59 60 61 61 62 62 62 62 62 63 64 64 65 65 66 66 66 67 68 68 68 69 69 69
53 52 52 53 53 53 55 55 55 55 54 53 54 54 53 54 54 53 53 52 52 50 46 44 45 45 45 45 45 49 52 51 51 51 51 51 51 51 52 52 53 54 55 56 57 58 59 60 59 59 59 59 59 59 59 58 57 57 57 58 59 60 62 63 64 64 65 65 65 66 66 67 68 68 69 69 69 70 70 71 71 72 72 72 72 72
55 55 55 56 56 56 57 57 57 58 57 56 56 56 56 57 58 57 56 54 53 52 48 45 46 47 47 47 48 53 56 55 55 55 55 54 54 54 55 55 56 57 58 59 60 61 62 62 62 61 62 61 61 61 61 60 59 59 59 60 62 63 65 66 67 67 68 68 69 70 70 71 72 72 73 74 75 75 75 75 75 75 75 75 75 74
58 58 57 58 59 58 59 59 59 59 60 60 59 58 59 60 60 59 58 56 55 53 49 47 46 47 50 50 50 55 59 59 59 59 58 58 58 58 58 59 60 61 62 63 63 64 64 64 64 64 64 64 64 64 63 63 62 62 62 63 65 66 67 68 69 70 70 71 72 73 73 74 75 76 77 78 79 80 80 80 80 79 78 78 78 77
62 61 60 60 61 61 61 61 61 61 62 63 62 60 61 61 61 60 58 57 56 54 51 49 47 47 52 54 53 56 60 62 62 62 62 62 62 62 62 63 64 65 65 66 67 67 67 67 67 67 66 66 66 66 66 65 65 65 65 66 68 69 70 71 72 72 73 74 74 75 75 76 77 78 79 81 82 83 84 84 85 84 82 81 80 79
65 65 63 62 62 64 64 63 64 63 63 64 64 62 62 62 62 61 57 56 57 56 52 51 49 47 51 54 56 60 63 64 64 64 65 65 65 65 66 67 68 68 69 70 70 70 69 69 69 69 69 68 68 67 67 67 68 68 69 70 71 72 73 74 75 75 76 77 77 78 78 79 80 81 82 83 84 85 86 87 88 88 87 85 83 81
68 68 67 66 64 66 66 64 65 66 65 65 65 64 63 62 63 62 59 56 58 58 56 54 51 50 52 53 57 64 67 66 66 66 67 67 67 68 69 70 71 71 72 72 72 72 71 71 71 71 71 70 70 69 69 70 71 71 72 73 74 75 76 77 78 79 80 80 81 82 82 83 84 84 85 86 87 88 89 90 92 92 91 89 87 85
71 70 69 69 67 67 67 65 66 68 67 66 66 65 64 64 63 63 62 60 59 60 60 60 55 53 55 56 60 67 69 68 69 69 69 69 70 71 71 72 73 73 74 74 73 73 72 72 72 72 72 72 72 72 72 72 73 74 75 77 78 79 80 81 82 82 83 84 85 86 86 87 88 89 89 89 90 91 92 93 94 94 93 92 89 87
73 72 70 70 69 68 68 66 67 68 69 69 68 67 66 66 66 66 66 64 63 62 63 64 61 57 59 61 65 70 72 71 71 71 71 72 72 73 74 75 76 75 75 75 74 74 73 73 73 73 73 74 74 74 75 76 77 77 78 80 81 82 83 84 85 86 87 87 89 90 91 91 92 92 92 93 93 93 93 93 93 93 92 91 90 89
74 73 71 71 71 70 69 69 69 70 70 71 71 70 70 70 70 70 70 69 68 66 66 67 65 63 65 65 68 74 75 74 74 73 74 75 75 76 76 76 77 76 76 75 74 74 74 74 75 75 75 76 77 77 78 79 80 81 82 83 84 85 86 87 88 89 90 91 92 94 94 95 95 96 96 95 95 94 93 92 91 90 90 90 90 90
76 75 74 73 74 73 72 72 73 73 73 74 74 73 73 73 74 74 74 74 72 70 71 72 68 68 71 70 71 76 77 77 77 76 77 78 77 78 78 78 77 76 76 75 75 75 75 76 76 77 78 78 79 80 81 82 83 84 85 86 87 88 89 90 92 93 94 95 96 97 98 99 99 99 98 97 96 94 93 92 91 90 90 90 91 91
78 77 76 76 76 75 74 75 77 76 75 76 77 76 76 77 77 77 78 78 76 74 76 76 73 74 77 76 76 78 79 79 80 79 79 79 78 78 78 78 77 77 76 76 76 77 77 78 79 79 80 81 82 83 84 85 86 87 88 89 91 92 93 94 95 97 98 99 100 100 101 102 101 100 99 98 97 95 94 93 93 93 93 93 92 91
79 78 77 77 77 76 76 77 79 78 77 77 77 78 78 78 78 79 80 79 79 79 77 77 79 79 78 80 82 80 79 80 81 80 79 79 79 79 78 77 77 77 77 77 78 78 79 80 81 82 83 84 85 86 87 88 89 90 91 92 94 95 96 97 99 100 102 103 104 104 104 104 102 101 100 99 97 97 97 97 97 95 94 92 90 88
81 79 78 79 79 78 78 78 80 80 79 78 79 78 78 78 79 79 80 79 81 82 78 77 82 81 77 80 84 83 81 81 81 81 80 79 79 79 78 78 78 78 78 79 80 81 82 83 84 85 85 87 88 89 90 91 92 93 94 95 97 98 99 101 102 103 105 106 107 107 106 105 104 103 102 101 100 100 100 99 97 94 91 89 86 84
84 81 80 81 81 80 81 81 81 83 82 81 81 80 79 79 79 79 79 80 83 85 81 79 83 82 79 81 84 84 84 83 82 81 80 79 79 78 78 79 79 79 80 81 82 83 84 85 86 87 88 90 91 91 92 94 95 96 97 98 100 101 103 105 106 107 108 109 110 110 109 108 107 106 104 103 103 102 101 98 95 91 88 85 83 82
86 83 82 84 83 82 83 83 84 85 85 83 83 81 80 80 80 79 80 82 86 87 83 82 83 82 81 83 85 85 84 84 83 82 80 79 79 78 79 79 80 81 82 83 84 86 87 88 89 90 91 92 93 94 95 96 97 98 99 101 103 105 106 108 109 110 111 112 113 112 112 110 108 106 105 104 103 101 98 94 90 88 85 84 83 81
87 85 85 86 86 84 82 84 86 87 86 86 84 79 79 80 80 81 83 85 88 87 84 84 84 82 81 84 86 86 85 85 84 83 82 81 80 80 81 81 82 83 84 85 87 88 89 90 91 93 94 94 95 96 97 98 99 100 102 104 106 108 109 111 112 113 114 115 115 114 113 110 108 106 104 103 100 96 93 90 87 85 84 82 81 80
87 87 86 87 89 86 82 85 89 88 88 88 81 75 77 80 81 83 86 87 87 87 86 85 85 83 84 85 86 87 87 87 86 85 85 84 83 83 84 85 85 86 87 88 89 90 91 93 94 95 95 96 97 98 99 100 101 103 104 106 108 110 112 113 114 115 116 117 116 115 112 108 106 104 102 98 95 92 89 87 85 83 81 80 78 77
89 90 89 90 92 89 84 87 91 91 92 88 78 74 79 82 83 85 87 87 88 89 89 87 86 86 87 86 86 87 88 88 88 88 87 87 86 87 87 88 89 89 90 91 92 93 94 96 97 97 97 98 98 99 101 102 104 105 107 109 111 113 115 116 117 118 118 118 116 112 108 106 103 100 97 93 91 88 86 84 82 79 77 75 74 72
92 93 93 94 96 94 89 90 95 96 92 85 79 80 83 83 85 87 88 89 91 92 92 90 89 90 89 89 89 89 89 90 90 90 89 89 90 90 90 91 92 93 93 93 94 95 97 98 98 98 99 99 100 102 103 105 106 108 110 112 114 115 117 118 119 119 119 116 112 108 104 102 99 95 92 90 88 86 84 81 78 75 72 70 67 65
94 96 97 98 100 99 96 97 100 98 90 86 86 87 85 85 87 89 91 92 94 95 94 92 93 94 93 92 92 91 91 92 92 92 92 92 92 92 93 94 95 95 95 95 96 98 99 99 99 100 100 101 102 104 105 107 109 110 112 114 116 117 119 120 120 119 116 111 107 103 100 97 93 90 89 87 86 83 81 77 73 69 67 64 62 59
98 99 100 101 102 102 101 102 103 99 93 92 91 87 86 88 90 93 95 95 95 96 96 95 97 97 96 95 95 95 95 95 95 95 94 94 94 95 96 97 96 97 97 97 99 100 101 101 101 101 102 103 105 106 108 110 111 112 114 116 118 119 120 120 119 116 111 106 102 99 95 92 89 88 86 85 82 80 76 72 69 65 61 58 56 55
103 103 104 104 105 105 105 104 105 103 99 95 91 87 88 91 93 96 99 97 95 96 96 97 99 100 98 99 99 99 99 99 99 98 96 96 98 98 99 99 98 98 99 100 101 102 102 102 102 103 104 105 107 109 110 111 113 114 116 118 120 121 121 119 116 111 106 101 98 94 90 88 87 85 83 81 78 75 71 68 64 60 56 53 51 51
109 109 109 110 110 110 110 109 108 108 104 98 94 93 92 93 96 100 103 101 97 96 97 99 101 101 101 102 102 102 102 102 102 100 98 99 102 102 102 101 100 100 102 103 104 103 103 104 105 106 106 108 109 111 112 113 114 116 118 119 121 121 119 115 110 104 100 96 92 88 86 85 84 81 79 76 73 70 66 62 58 55 51 49 48 47
113 114 115 116 115 114 115 115 114 113 109 104 101 99 97 98 101 104 106 104 99 97 99 101 102 103 105 105 105 105 104 104 105 104 101 102 104 104 102 102 102 103 104 105 105 105 105 106 107 107 109 110 111 113 114 115 116 117 119 120 121 119 114 109 103 99 95 90 85 83 83 82 80 77 75 72 68 64 60 56 54 51 48 45 43 42
116 117 119 120 120 119 119 120 120 118 115 112 109 107 104 105 107 108 109 108 103 102 103 104 105 107 107 107 107 107 107 107 107 107 105 104 105 104 103 104 105 106 107 107 107 106 107 108 109 110 111 112 113 114 115 116 117 119 120 120 119 115 108 103 98 93 88 83 81 81 80 78 76 74 70 66 61 57 54 52 49 47 44 41 38 37
119 120 121 123 123 123 124 125 125 123 121 118 115 113 112 113 114 114 113 112 110 108 108 108 109 110 110 110 111 111 110 109 109 110 109 108 107 106 107 108 108 109 109 108 108 108 109 110 110 111 112 113 115 116 117 118 118 119 120 118 114 109 103 97 92 86 81 78 78 78 76 74 72 68 64 59 55 52 50 47 44 42 40 38 35 33
123 124 125 125 125 126 127 129 129 127 125 123 121 120 120 120 120 120 118 116 115 115 114 113 113 113 113 114 114 113 113 112 112 113 112 111 110 110 110 111 110 110 110 110 110 110 110 111 112 113 114 115 116 117 118 118 118 118 117 113 108 102 96 91 84 79 76 75 75 74 72 70 66 61 56 53 50 48 45 43 40 38 36 34 32 30
128 129 129 129 128 129 130 131 131 130 129 127 127 127 126 125 125 125 123 121 120 120 119 119 118 117 118 118 118 117 116 115 115 114 114 113 112 112 112 112 111 111 111 111 111 111 111 112 112 113 115 116 117 117 118 118 117 115 112 106 100 95 89 82 76 73 72 72 71 70 67 63 59 54 50 48 45 42 40 39 37 35 32 31 29 28
132 133 132 132 132 133 133 133 133 133 132 130 130 131 130 130 129 129 127 126 125 124 123 122 121 121 122 122 121 120 118 117 116 115 115 114 114 113 113 113 112 112 112 112 112 112 112 112 113 114 115 116 116 117 117 116 114 110 104 99 93 87 81 74 70 69 69 68 67 65 61 56 52 48 45 42 40 38 36 35 33 31 29 28 26 24
135 135 135 134 135 136 136 135 135 134 133 132 132 132 133 133 132 131 130 129 128 128 126 125 124 124 124 124 123 122 120 119 118 118 117 116 116 115 115 114 114 114 113 113 113 112 113 113 113 114 115 115 116 116 115 112 107 102 96 91 85 79 72 68 67 66 66 64 62 59 54 49 46 43 40 38 36 34 32 31 30 28 26 24 23 22
136 137 137 135 135 135 135 135 135 134 133 133 133 133 133 133 132 132 131 130 129 129 128 128 127 126 126 125 124 123 122 121 120 120 119 118 118 117 115 115 115 115 114 114 113 113 113 113 113 113 113 113 113 112 109 105 99 94 88 83 76 70 66 64 64 63 61 59 56 52 47 44 41 38 35 34 32 29 28 28 27 25 23 22 21 19
135 136 135 134 133 133 132 132 132 132 133 133 133 132 132 132 131 130 129 128 127 127 127 127 126 125 124 124 123 123 123 122 121 120 120 119 118 116 115 115 115 114 114 113 112 112 112 111 111 110 110 109 108 105 101 96 91 86 80 74 68 63 61 60 60 59 56 53 50 45 41 39 36 33 31 30 26 24 25 24 22 21 20 20 18 15
128 127 127 127 127 126 125 124 125 126 126 127 127 127 126 125 125 124 123 121 120 120 119 119 118 118 118 118 119 119 119 119 118 117 116 115 114 114 113 112 112 111 110 109 109 108 107 106 106 105 104 103 101 98 93 88 83 77 72 66 61 58 57 57 56 53 50 47 43 40 36 33 31 29 27 24 21 21 21 20 18 18 17 14 12 9
117 115 114 115 117 116 113 112 114 116 118 118 118 117 116 115 114 113 112 110 109 109 108 108 109 109 109 109 110 111 112 111 111 110 109 108 108 108 107 106 105 105 104 102 101 101 100 99 99 98 97 96 93 89 85 81 75 70 64 59 56 55 55 53 50 47 45 42 38 35 31 28 26 25 22 19 18 18 18 16 15 13 10 7 6 6
109 108 106 107 106 104 101 102 105 108 110 110 108 106 105 104 104 103 101 100 98 98 98 98 99 99 100 100 101 102 102 102 102 102 101 101 100 100 99 98 97 95 94 93 93 93 93 92 92 91 90 89 86 82 78 73 68 63 58 54 52 53 51 48 45 43 40 37 33 30 26 24 22 20 16 15 16 14 12 11 9 7 7 9 11 12
104 102 101 101 97 93 92 96 101 103 103 101 99 96 94 95 95 94 92 90 90 90 90 90 91 91 92 92 93 93 94 94 94 93 93 92 91 91 90 89 87 86 85 85 86 86 87 86 86 85 84 82 78 75 71 66 62 57 53 50 50 50 46 43 40 39 35 32 28 24 21 19 17 13 12 13 11 8 7 6 7 10 15 18 19 20
Wind_Direction
335 336 337 340 342 344 346 346 345 346 346 343 340 338 337 336 338 342 343 344 344 342 340 337 334 331 328 327 325 324 323 324 326 328 330 333 335 335 335 335 336 337 336 336 335 336 336 337 339 340 340 339 339 339 338 337 334 331 326 322 317 312 307 305 303 302 302 302 302 302 302 302 301 299 297 296 294 294 294 295 294 292 290 287 284 280
323 325 327 330 334 337 339 340 340 341 342 341 339 337 335 333 331 331 332 334 335 334 334 334 333 332 330 330 328 325 324 324 325 326 327 329 330 331 330 329 329 328 328 328 328 328 328 328 328 328 328 327 327 326 327 327 327 327 326 325 323 319 316 313 310 308 307 306 305 304 303 303 303 302 300 298 297 295 294 294 293 292 290 289 287 284
314 317 320 323 326 330 332 334 334 335 335 336 337 337 335 331 326 324 323 324 324 324 325 325 326 326 327 327 327 327 327 327 327 327 326 327 327 328 327 326 324 323 322 321 321 320 320 320 320 320 320 320 319 318 318 318 318 318 317 317 317 316 315 313 312 311 310 309 309 308 307 306 305 304 304 303 302 301 299 297 295 293 291 290 289 287
308 311 313 317 321 324 326 328 329 329 330 330 332 333 333 330 324 318 315 314 313 313 315 316 317 317 319 320 322 323 325 327 327 326 326 326 327 327 326 325 323 322 320 319 317 316 315 315 314 314 314 313 313 312 312 311 311 311 310 310 310 310 309 309 308 307 307 307 307 307 307 307 306 306 305 305 304 304 304 302 300 298 296 294 292 289
303 306 309 313 316 319 321 323 323 324 325 325 326 327 329 329 325 316 308 304 304 304 306 312 314 312 312 314 316 318 321 323 323 323 323 324 325 325 325 324 323 322 321 320 319 317 315 314 313 311 310 309 308 307 306 306 306 306 305 305 305 305 305 305 305 305 304 303 303 303 303 303 303 303 303 303 303 303 304 304 304 302 300 299 297 294
300 303 305 308 311 314 317 317 318 319 320 321 321 322 323 324 324 320 309 299 297 299 301 306 310 309 308 309 311 313 315 317 319 319 319 320 321 322 322 322 322 322 321 320 320 318 317 316 314 312 310 308 306 305 303 302 303 303 303 302 302 302 303 303 303 303 302 301 300 299 299 299 300 299 299 299 299 299 300 300 301 301 300 299 298 297
297 299 301 304 306 308 310 312 313 314 316 317 317 317 318 319 320 320 316 308 299 297 296 299 303 304 304 304 306 308 310 312 313 314 315 316 317 318 319 319 320 319 320 319 319 318 317 316 315 312 310 308 306 305 303 302 302 302 302 302 302 302 303 303 302 302 301 299 298 297 296 296 296 297 297 297 297 297 298 298 298 298 298 297 297 296
293 295 297 299 301 303 305 307 308 310 311 312 312 313 313 314 315 315 317 315 309 301 294 292 294 298 300 299 300 304 305 307 308 309 310 312 313 314 315 316 316 317 317 318 317 316 316 315 314 312 310 308 307 305 304 303 302 302 302 302 303 304 304 304 303 301 300 298 296 295 294 294 294 295 296 297 297 297 298 299 299 298 297 297 296 296
289 291 293 295 297 299 301 302 304 305 307 308 309 309 309 310 312 312 313 313 312 307 297 289 287 289 294 295 295 298 301 302 304 304 306 308 310 311 312 313 313 314 315 315 315 315 314 314 313 312 310 309 307 306 304 303 303 302 302 302 303 303 304 305 304 302 299 297 295 293 292 292 293 295 296 297 297 296 296 297 297 296 295 295 295 295
286 288 290 291 293 295 297 298 299 301 303 304 305 306 306 307 308 309 310 310 309 308 301 292 286 282 286 291 292 293 296 298 298 299 301 303 305 306 308 309 311 312 313 313 313 312 313 313 312 311 311 310 308 306 304 303 302 302 302 302 302 302 303 304 303 302 300 297 295 293 292 292 292 293 294 295 294 294 294 294 294 294 293 292 292 293
284 285 287 288 290 292 293 294 296 298 299 301 302 302 303 304 305 306 307 307 307 307 305 299 290 283 282 285 288 289 291 293 294 295 297 298 300 302 304 306 307 309 309 310 310 310 311 311 311 311 311 310 309 307 305 303 302 301 301 301 301 302 302 302 302 301 300 298 296 295 293 292 292 292 293 293 293 293 293 293 292 292 291 291 291 291
281 283 285 286 288 289 291 292 294 295 297 298 299 299 300 300 301 303 304 305 305 305 305 302 296 291 286 284 286 288 289 290 291 292 293 295 296 298 300 302 304 306 307 307 307 308 310 309 309 310 310 310 309 308 306 304 302 301 300 299 299 300 300 301 301 301 300 299 298 297 295 294 293 293 293 294 294 294 293 293 292 291 290 290 290 290
279 282 283 285 286 287 289 290 292 294 295 296 297 297 297 297 299 300 301 302 303 303 304 302 298 295 290 287 288 289 289 289 290 291 293 294 295 296 298 300 302 303 304 304 306 307 307 307 308 308 308 309 309 308 307 305 302 300 298 298 297 298 298 299 299 300 300 299 299 298 297 296 295 295 295 295 294 294 293 293 292 291 291 290 290 290
278 279 281 283 285 286 287 289 290 292 293 295 296 296 296 296 297 298 298 299 300 301 302 301 298 295 291 289 290 289 289 289 290 292 293 293 294 295 298 300 301 302 302 303 304 305 305 305 306 306 307 308 308 308 307 305 302 299 298 297 296 296 297 297 298 299 299 299 299 298 298 297 297 297 296 296 295 294 293 292 291 291 291 291 291 291
277 278 280 282 283 285 286 288 289 290 291 292 293 293 294 295 295 295 296 297 298 299 300 300 297 294 292 291 292 291 290 290 291 292 292 292 294 296 298 300 300 300 301 302 303 303 303 304 304 305 305 306 307 306 305 303 300 299 297 296 296 296 296 297 298 299 300 300 300 300 299 299 298 297 297 296 295 294 293 292 292 291 291 291 291 291
276 277 279 281 282 284 285 287 288 289 290 291 291 291 293 293 293 294 294 295 296 297 298 298 295 293 292 292 293 291 290 291 291 291 291 293 295 297 298 299 299 300 301 302 301 302 303 303 303 304 305 305 305 304 303 301 299 298 297 296 296 297 297 298 299 301 301 301 301 301 301 300 299 298 298 297 296 295 294 293 293 293 292 292 291 291
274 276 278 279 281 283 284 285 287 288 289 289 289 290 291 291 291 292 293 294 294 295 296 295 293 292 292 292 292 291 291 291 291 291 292 294 296 297 297 298 299 300 301 301 301 302 302 302 303 304 304 304 304 303 302 300 299 298 297 297 297 298 299 300 301 302 302 302 302 302 302 301 300 300 299 299 298 297 296 295 295 294 294 293 292 292
274 275 277 278 280 281 282 283 285 286 287 287 287 288 289 289 290 291 291 292 292 293 294 293 291 291 291 291 290 290 290 291 291 292 294 296 296 297 298 300 300 300 301 301 302 302 302 303 303 304 304 304 303 302 301 300 300 299 298 298 298 299 300 301 302 302 302 302 302 302 302 301 300 300 300 299 299 299 298 298 297 296 295 294 293 292
275 276 276 277 279 280 281 282 283 284 284 285 286 286 286 287 287 288 289 290 290 290 291 290 290 290 290 290 290 289 289 289 291 293 295 296 297 298 299 300 300 301 301 302 302 302 303 303 303 303 303 303 302 302 301 301 300 299 299 299 300 301 301 302 302 302 302 301 301 301 301 300 300 299 299 299 298 299 299 298 297 297 296 294 293 292
275 276 277 277 278 279 280 281 282 282 283 284 284 284 285 285 285 286 287 288 288 288 288 287 288 287 287 288 289 288 287 288 290 292 294 295 297 298 299 299 300 301 301 301 302 302 303 303 303 303 302 302 302 301 301 301 300 300 300 301 301 301 302 302 302 302 301 301 301 300 300 299 299 299 298 298 298 298 298 297 297 297 297 296 295 293
276 276 277 277 278 279 279 281 281 281 281 282 282 283 283 284 284 285 286 285 285 286 286 286 287 286 285 286 286 285 286 287 289 291 292 293 295 296 296 297 298 299 300 300 301 302 302 302 302 302 301 301 301 301 300 300 300 301 301 301 302 302 302 302 302 301 301 301 301 300 300 300 299 299 298 298 298 298 298 297 297 296 296 295 294 293
275 276 277 278 278 277 278 280 280 281 281 281 281 282 282 283 283 284 284 284 284 285 286 287 287 286 285 285 283 283 285 286 288 289 290 292 293 293 295 296 297 298 299 299 300 301 301 301 300 300 300 300 300 300 300 300 301 301 302 302 303 303 302 302 302 302 301 301 301 300 300 300 300 300 299 299 299 298 297 296 295 294 293 292 291 290
274 275 275 277 277 277 278 279 279 280 281 281 281 282 282 283 283 283 283 283 283 284 285 286 288 286 284 284 284 283 284 285 287 288 289 291 292 293 294 295 296 297 298 299 299 299 299 299 299 299 299 299 299 300 300 301 301 302 302 303 303 302 302 302 302 302 301 301 301 301 301 301 301 301 300 300 299 298 297 296 294 293 291 290 289 288
273 274 275 276 276 277 278 278 278 278 279 280 281 282 282 283 282 282 283 283 284 284 284 285 286 286 284 283 283 283 284 285 287 288 289 290 291 292 293 294 295 296 297 297 298 298 298 298 298 298 299 299 300 301 301 302 302 303 303 302 302 302 302 302 301 301 301 301 301 302 302 302 302 302 301 301 300 299 297 296 295 293 292 290 289 288
272 273 274 275 275 276 277 277 277 277 278 279 280 280 281 282 282 283 283 283 284 285 285 285 286 285 283 282 282 282 284 286 287 288 289 290 291 292 293 294 295 296 296 296 297 297 297 298 298 298 299 299 300 301 301 302 302 302 302 302 302 302 302 301 301 301 302 302 303 303 303 303 303 303 303 302 301 300 299 298 297 295 293 292 290 289
271 272 273 274 274 275 276 276 276 276 277 278 279 280 280 280 281 282 282 283 284 285 284 286 285 283 283 283 283 282 284 286 287 288 288 290 291 292 293 294 295 295 296 296 297 297 297 297 297 298 299 300 300 301 301 302 302 302 302 303 302 302 302 302 302 303 304 304 305 305 305 304 304 304 304 303 302 302 301 300 298 297 295 293 291 289
271 272 273 273 274 274 275 275 275 276 276 277 277 278 279 279 280 281 281 283 284 283 284 285 283 282 283 285 284 284 285 286 287 288 289 290 291 292 293 294 295 295 296 296 296 296 296 297 297 298 299 300 301 301 302 302 302 302 303 303 302 302 302 302 303 304 305 305 305 306 306 306 306 305 305 305 304 303 302 301 299 297 294 292 289 287
271 271 272 272 273 273 273 274 274 275 276 276 276 276 277 278 279 280 281 283 283 282 283 282 281 282 284 284 284 286 286 286 287 288 290 291 291 292 293 294 294 295 295 296 296 296 296 297 298 299 300 300 301 301 302 302 302 303 303 303 302 302 303 303 304 305 305 306 306 307 307 307 307 307 307 306 305 304 302 300 298 295 293 290 288 285
271 271 271 271 272 272 273 273 273 274 274 275 275 276 276 277 277 279 281 281 280 280 281 281 281 283 284 283 284 285 285 286 287 288 289 290 291 292 293 293 294 294 295 295 295 296 297 298 298 299 300 300 301 301 302 302 303 303 303 303 303 303 304 304 305 306 306 307 308 308 309 309 309 308 307 306 305 303 301 299 296 294 292 289 286 283
270 271 271 271 271 271 271 272 273 273 273 273 274 275 276 277 278 278 279 278 277 278 280 280 281 282 283 283 283 283 284 286 287 288 288 289 290 291 291 292 293 293 294 294 295 296 297 297 298 299 300 300 301 302 302 303 303 303 303 303 303 303 304 305 305 306 307 308 309 309 309 309 309 308 307 306 304 302 300 297 295 292 290 287 284 282
270 271 271 271 271 270 271 272 272 272 272 272 273 275 277 278 279 278 277 276 276 278 279 279 280 281 281 281 282 283 284 285 286 287 288 289 289 290 290 291 292 293 294 294 295 296 296 297 298 299 300 300 301 302 303 303 303 303 303 303 303 303 304 305 306 307 308 309 309 310 309 309 308 307 306 305 303 300 297 295 293 291 289 286 284 281
270 271 271 272 272 271 271 272 272 271 271 271 273 277 279 279 278 277 277 277 278 279 279 279 280 280 280 280 282 284 285 286 286 287 288 289 290 290 291 291 292 293 293 294 295 296 296 297 298 299 300 301 302 303 303 303 303 303 302 302 302 303 304 305 307 308 309 310 310 309 309 308 308 307 306 304 301 298 297 295 293 292 290 287 284 281
270 270 270 270 271 270 270 271 272 271 271 272 276 278 277 277 277 277 277 279 280 280 279 280 280 280 280 281 282 283 284 286 287 288 289 290 290 291 291 292 292 293 293 294 295 296 296 297 298 299 300 301 302 302 302 302 302 302 302 302 302 303 305 307 308 309 309 310 309 309 309 309 308 307 305 302 300 298 297 296 295 293 291 288 285 282
269 270 270 270 270 270 269 269 269 269 271 275 276 274 274 275 277 278 279 279 279 279 280 281 281 281 281 282 282 283 284 285 286 287 288 289 289 290 291 291 291 292 293 294 295 295 296 297 298 299 300 301 301 302 302 302 301 301 301 302 303 305 306 307 308 309 309 309 309 309 309 309 308 306 303 301 301 300 299 298 296 294 292 289 287 284
269 270 270 271 271 271 270 269 269 269 271 273 272 272 274 276 277 278 278 277 278 279 280 281 281 281 282 282 283 284 284 285 285 286 287 288 289 289 290 290 291 292 293 294 294 295 296 297 299 299 300 300 301 301 301 301 301 301 302 303 304 305 306 307 308 309 309 310 310 310 310 309 307 304 303 303 302 302 300 299 297 296 294 292 289 285
268 268 268 269 270 270 270 270 271 271 271 270 271 273 276 276 276 276 275 275 277 278 280 281 281 281 282 283 283 284 284 284 284 285 286 288 288 289 289 290 292 293 293 294 295 295 297 298 298 299 299 300 300 300 300 300 301 302 303 304 305 306 307 308 309 310 310 311 311 311 310 308 306 304 304 304 303 302 301 300 299 297 295 293 289 285
269 269 269 269 269 269 269 269 270 271 270 271 272 273 273 273 274 274 274 275 275 277 279 280 280 281 282 282 283 283 283 283 284 285 287 288 288 289 290 291 292 293 293 294 295 296 297 298 298 298 299 299 299 299 300 300 301 302 303 304 305 306 307 309 310 311 311 312 312 311 309 306 305 305 305 304 304 303 302 301 300 299 297 294 290 286
271 271 270 270 269 269 270 269 269 269 269 270 270 270 270 271 272 272 272 273 274 275 277 278 279 280 281 281 281 282 282 283 284 285 286 287 287 288 289 290 292 292 293 293 294 295 296 297 297 297 298 298 298 299 299 300 301 302 303 304 305 307 308 309 311 311 312 312 312 310 307 305 305 306 306 306 305 304 303 302 302 300 298 295 291 286
269 270 270 270 270 270 271 271 271 270 270 270 269 269 268 268 269 269 270 271 272 274 275 276 277 277 278 279 280 281 282 282 283 284 285 285 286 287 288 290 291 291 292 292 294 295 295 296 296 297 297 298 298 299 299 300 301 302 303 305 306 307 309 310 311 312 312 312 310 307 306 306 307 308 307 306 305 304 304 304 303 302 299 295 291 286
266 267 268 269 270 270 271 271 271 271 271 271 270 270 269 268 268 268 269 271 271 272 272 273 274 275 276 277 278 279 280 281 281 283 283 284 285 286 287 288 289 289 290 291 293 294 294 295 295 296 297 297 298 298 299 300 302 303 304 305 307 308 310 312 312 313 313 311 308 306 306 308 308 308 307 306 305 305 306 306 304 302 300 296 292 288
264 265 266 267 268 269 270 270 271 271 271 271 271 271 271 270 270 270 270 271 272 271 271 272 272 273 274 275 276 277 278 279 280 281 282 283 284 285 286 287 287 288 289 291 292 292 293 294 295 296 296 297 297 298 299 301 302 303 305 306 308 310 311 312 313 313 312 309 307 306 308 308 308 307 307 307 307 308 307 306 305 305 302 299 296 291
263 264 264 265 266 267 268 269 270 270 271 272 272 272 272 272 272 272 273 273 273 273 273 273 274 274 275 275 276 277 278 278 279 281 282 284 284 284 285 286 286 288 289 290 291 292 293 293 294 295 296 296 297 299 300 301 302 304 305 307 309 310 311 312 312 312 310 307 306 307 308 308 308 307 308 309 309 309 309 309 309 307 304 302 299 295
264 264 264 264 264 265 266 267 268 269 270 271 272 272 273 273 273 274 274 275 275 275 275 276 276 276 276 277 277 278 278 279 280 281 282 283 283 283 284 285 286 287 288 289 290 291 292 293 294 295 296 297 298 299 300 301 303 304 306 308 309 310 311 311 312 310 307 306 307 308 308 308 308 309 310 310 310 311 312 312 311 308 306 304 301 298
264 264 264 265 265 265 265 266 267 268 269 270 271 272 273 273 274 274 275 275 276 276 276 277 277 277 277 278 278 279 280 281 282 282 282 282 282 283 284 285 286 287 288 289 290 291 292 293 294 295 296 297 298 299 300 301 303 305 307 308 309 310 310 311 310 307 306 307 308 307 307 308 310 310 311 311 313 315 315 314 312 311 310 308 305 302
265 265 265 265 266 266 267 267 268 269 269 270 271 271 272 273 273 274 275 275 276 276 276 277 277 277 277 278 279 280 281 281 281 281 281 282 282 283 284 285 286 287 288 289 290 291 293 293 294 295 296 297 298 299 300 301 303 305 307 308 309 309 310 310 308 306 306 307 307 307 308 310 310 310 312 315 316 317 318 318 317 315 314 312 310 306
266 266 266 266 267 267 268 269 269 270 271 271 271 271 271 272 273 273 274 274 275 275 276 276 277 277 278 278 279 280 280 280 280 280 281 282 282 284 285 286 287 288 289 290 291 292 293 293 294 295 296 297 297 298 300 302 304 306 307 307 308 309 310 308 306 306 307 307 306 307 309 310 310 312 316 318 318 320 323 323 320 319 319 317 313 307
268 268 269 269 270 270 270 271 272 272 272 272 272 272 272 272 272 273 273 274 275 275 276 276 277 277 278 279 279 279 280 280 280 280 281 282 283 284 285 286 287 288 289 290 291 292 292 293 294 294 295 296 297 298 300 302 304 306 306 307 308 310 308 306 305 306 306 306 307 309 309 309 311 316 319 318 320 327 330 327 324 325 323 318 311 306
271 271 272 273 273 273 273 273 273 273 273 272 273 273 273 273 273 274 274 275 275 276 276 276 277 277 278 278 278 279 279 279 280 280 281 282 283 284 285 286 286 287 288 289 290 291 292 292 293 293 294 295 296 298 301 303 305 305 306 307 309 309 306 305 305 306 306 307 308 309 309 310 315 320 320 320 328 337 337 332 330 328 324 319 317 320
274 274 274 274 273 273 274 274 273 273 273 272 272 273 273 274 274 275 275 276 276 277 277 277 278 278 278 278 278 278 278 279 280 281 282 282 283 284 285 286 287 287 288 289 290 290 291 291 291 292 293 295 297 299 302 303 304 305 306 309 309 307 304 305 306 306 307 308 309 308 309 313 319 321 321 329 344 347 341 337 336 334 334 349 13 29
275 274 273 273 272 273 273 273 272 271 271 271 271 272 273 274 275 275 276 276 277 277 277 278 278 278 278 278 278 278 279 280 280 281 282 283 284 284 285 286 287 288 288 289 289 289 289 290 291 292 293 295 298 300 302 303 304 305 307 309 307 305 304 306 307 308 308 309 308 307 311 318 321 322 331 350 358 352 346 349 353 8 47 68 74 80
274 274 273 273 272 272 271 269 269 269 269 270 271 272 273 273 274 275 276 276 276 276 276 276 276 277 277 278 278 279 279 280 281 282 283 284 284 285 286 286 287 287 288 288 288 288 288 289 291 292 294 297 299 301 302 303 304 306 308 308 305 304 305 308 308 308 308 307 306 308 314 321 323 333 357 11 10 5 14 34 64 84 88 90 93 94
Height
10813 10813 10813 10812 10811 10811 10810 10810 10810 10809 10809 10808 10807 10806 10805 10804 10803 10803 10801 10800 10798 10796 10794 10792 10791 10789 10788 10787 10786 10785 10783 10781 10779 10778 10777 10777 10776 10776 10776 10775 10775 10775 10774 10773 10773 10772 10771 10770 10770 10769 10768 10767 10766 10765 10764 10762 10761 10760 10759 10758 10756 10755 10753 10752 10750 10748 10747 10746 10744 10743 10741 10740 10739 10739 10738 10736 10735 10735 10734 10733 10732 10731 10730 10729 10729 10729
10812 10812 10811 10811 10810 10810 10809 10809 10809 10808 10808 10807 10806 10805 10804 10803 10802 10801 10800 10798 10797 10795 10793 10791 10790 10788 10787 10786 10785 10784 10782 10780 10777 10775 10774 10773 10773 10773 10773 10772 10772 10772 10771 10771 10770 10769 10769 10768 10767 10767 10766 10765 10763 10762 10761 10760 10759 10758 10757 10756 10754 10753 10751 10749 10747 10746 10744 10742 10741 10739 10738 10736 10735 10734 10733 10732 10731 10730 10730 10729 10728 10727 10725 10724 10724 10724
10809 10809 10809 10809 10808 10808 10807 10807 10807 10807 10806 10806 10805 10804 10803 10802 10800 10799 10798 10797 10795 10794 10792 10790 10789 10787 10786 10785 10784 10782 10781 10779 10777 10774 10772 10771 10771 10770 10770 10769 10769 10769 10768 10768 10767 10766 10766 10765 10764 10763 10763 10761 10760 10759 10758 10757 10756 10755 10754 10753 10752 10750 10749 10747 10745 10743 10741 10739 10737 10736 10734 10732 10731 10730 10728 10727 10726 10725 10725 10724 10723 10722 10721 10720 10719 10718
10807 10807 10806 10806 10806 10805 10805 10805 10805 10804 10804 10804 10803 10803 10802 10801 10800 10798 10797 10796 10795 10793 10790 10788 10787 10786 10785 10783 10782 10781 10779 10778 10776 10773 10771 10770 10769 10768 10767 10766 10766 10765 10765 10764 10764 10763 10762 10761 10760 10760 10759 10758 10756 10755 10754 10752 10751 10750 10750 10749 10748 10746 10745 10743 10742 10740 10738 10735 10733 10731 10730 10728 10726 10725 10724 10722 10721 10720 10719 10719 10718 10717 10716 10715 10714 10714
10804 10804 10803 10803 10803 10802 10802 10802 10802 10802 10801 10801 10801 10801 10800 10799 10798 10797 10796 10795 10793 10791 10789 10786 10784 10782 10782 10781 10780 10778 10777 10775 10774 10772 10770 10768 10767 10766 10765 10764 10763 10762 10761 10760 10759 10759 10758 10757 10756 10755 10754 10753 10752 10751 10749 10748 10747 10746 10745 10744 10743 10741 10740 10739 10737 10735 10733 10731 10729 10727 10725 10723 10722 10720 10719 10718 10716 10715 10714 10714 10713 10712 10711 10710 10709 10708
10800 10801 10800 10800 10800 10800 10799 10799 10799 10798 10798 10798 10798 10797 10797 10797 10796 10795 10794 10793 10791 10789 10787 10785 10782 10779 10778 10777 10777 10776 10774 10773 10771 10770 10768 10766 10765 10764 10763 10762 10760 10759 10758 10757 10756 10755 10754 10753 10752 10751 10749 10748 10747 10746 10745 10743 10742 10741 10740 10739 10737 10736 10735 10733 10732 10730 10728 10726 10724 10722 10720 10718 10717 10715 10714 10713 10712 10710 10709 10709 10708 10707 10706 10705 10704 10703
10797 10797 10797 10797 10797 10797 10797 10796 10796 10795 10795 10795 10794 10794 10794 10794 10794 10793 10792 10790 10788 10786 10784 10783 10782 10778 10775 10773 10773 10773 10772 10770 10769 10767 10765 10764 10762 10761 10760 10759 10758 10756 10755 10754 10752 10751 10750 10748 10747 10746 10745 10743 10742 10741 10740 10738 10737 10736 10734 10733 10732 10731 10730 10728 10726 10725 10723 10721 10719 10717 10715 10713 10711 10709 10708 10707 10706 10705 10703 10703 10703 10702 10700 10699 10698 10698
10794 10794 10794 10794 10793 10793 10793 10793 10793 10792 10792 10791 10791 10790 10790 10790 10790 10789 10789 10787 10786 10784 10782 10780 10780 10777 10773 10770 10770 10770 10769 10768 10766 10764 10763 10761 10760 10758 10756 10756 10754 10753 10752 10750 10749 10747 10746 10744 10743 10741 10740 10738 10737 10736 10734 10733 10731 10730 10729 10728 10726 10725 10724 10722 10720 10719 10717 10715 10713 10711 10708 10706 10705 10703 10701 10700 10699 10698 10696 10695 10695 10694 10693 10692 10691 10691
10790 10790 10790 10790 10790 10789 10790 10790 10789 10789 10789 10788 10787 10787 10786 10786 10785 10785 10785 10784 10783 10781 10779 10778 10776 10775 10772 10767 10765 10767 10766 10765 10763 10761 10760 10759 10757 10755 10753 10752 10751 10749 10748 10746 10744 10743 10741 10740 10738 10737 10735 10734 10732 10730 10729 10727 10726 10725 10723 10722 10721 10719 10717 10716 10714 10712 10710 10708 10706 10704 10702 10700 10698 10696 10694 10693 10692 10690 10689 10688 10687 10686 10685 10684 10684 10683
10787 10787 10786 10786 10786 10786 10786 10786 10785 10785 10785 10784 10784 10783 10782 10781 10781 10780 10780 10780 10780 10778 10776 10775 10773 10772 10770 10764 10761 10763 10762 10761 10760 10758 10757 10756 10754 10753 10751 10749 10747 10746 10744 10742 10740 10739 10737 10736 10734 10732 10731 10729 10727 10725 10724 10722 10721 10719 10718 10716 10715 10713 10711 10709 10707 10705 10703 10701 10699 10697 10695 10693 10691 10689 10687 10686 10685 10684 10682 10681 10680 10679 10678 10676 10676 10675
10783 10783 10782 10782 10782 10782 10782 10782 10781 10781 10781 10780 10780 10779 10778 10777 10776 10776 10775 10775 10775 10774 10772 10771 10769 10768 10767 10762 10758 10758 10758 10757 10755 10754 10753 10752 10751 10749 10748 10746 10744 10742 10740 10739 10736 10735 10733 10731 10729 10727 10726 10724 10722 10720 10719 10717 10715 10714 10712 10710 10708 10706 10704 10702 10700 10698 10696 10694 10693 10691 10688 10687 10684 10683 10681 10679 10678 10677 10676 10674 10673 10671 10670 10669 10667 10666
10779 10778 10778 10778 10778 10778 10777 10777 10777 10776 10776 10775 10775 10774 10774 10773 10772 10771 10770 10770 10769 10769 10769 10766 10764 10763 10761 10758 10755 10753 10753 10752 10751 10750 10749 10748 10747 10745 10744 10743 10741 10739 10737 10735 10733 10731 10729 10726 10724 10722 10720 10719 10717 10715 10713 10711 10710 10708 10706 10704 10702 10699 10697 10695 10693 10691 10689 10687 10685 10684 10681 10680 10678 10676 10674 10673 10671 10669 10667 10666 10664 10663 10661 10660 10659 10658
10775 10774 10773 10773 10773 10773 10772 10772 10772 10771 10770 10769 10769 10768 10768 10767 10767 10767 10765 10765 10763 10763 10764 10762 10759 10758 10755 10752 10750 10748 10747 10746 10745 10745 10743 10742 10741 10740 10739 10738 10737 10735 10733 10731 10728 10726 10724 10722 10719 10717 10715 10713 10711 10709 10707 10705 10703 10701 10699 10697 10695 10693 10690 10689 10686 10684 10682 10680 10678 10676 10674 10672 10670 10668 10666 10664 10663 10661 10659 10657 10655 10653 10652 10651 10650 10649
10770 10769 10769 10769 10768 10767 10767 10766 10767 10766 10765 10764 10762 10761 10762 10761 10761 10762 10760 10759 10758 10757 10758 10757 10754 10753 10749 10747 10745 10742 10741 10740 10739 10739 10738 10736 10735 10735 10734 10733 10732 10730 10728 10726 10724 10721 10719 10717 10714 10712 10710 10708 10706 10704 10701 10699 10697 10695 10692 10690 10687 10685 10683 10681 10679 10676 10674 10672 10670 10668 10666 10663 10661 10659 10657 10655 10653 10651 10650 10648 10646 10644 10642 10640 10639 10639
10764 10764 10764 10763 10763 10762 10761 10760 10760 10760 10760 10759 10757 10755 10755 10754 10754 10755 10754 10754 10752 10751 10753 10752 10749 10747 10743 10742 10740 10736 10733 10733 10733 10733 10732 10730 10730 10729 10728 10727 10726 10724 10722 10720 10718 10716 10714 10711 10709 10707 10705 10702 10700 10698 10695 10693 10690 10688 10685 10683 10679 10677 10674 10672 10670 10667 10665 10663 10661 10659 10656 10654 10651 10649 10647 10645 10643 10641 10640 10638 10636 10634 10633 10631 10629 10628
10759 10758 10758 10757 10757 10756 10754 10754 10753 10752 10753 10754 10751 10749 10749 10748 10747 10748 10748 10748 10746 10745 10747 10746 10743 10740 10738 10736 10734 10729 10726 10726 10726 10726 10725 10724 10724 10723 10722 10721 10719 10718 10716 10714 10711 10709 10707 10705 10703 10700 10698 10696 10694 10691 10689 10686 10683 10680 10677 10674 10671 10668 10665 10662 10660 10657 10655 10652 10650 10648 10645 10643 10640 10638 10636 10634 10632 10631 10629 10627 10625 10623 10622 10621 10619 10618
10753 10752 10753 10751 10750 10751 10748 10748 10748 10745 10745 10746 10745 10744 10743 10741 10739 10740 10741 10741 10740 10739 10741 10741 10737 10735 10732 10731 10729 10722 10718 10718 10718 10717 10718 10718 10717 10717 10716 10714 10713 10710 10708 10706 10704 10702 10700 10697 10695 10693 10691 10689 10686 10683 10680 10677 10675 10672 10668 10665 10662 10659 10656 10653 10651 10648 10645 10642 10639 10637 10634 10631 10628 10626 10623 10621 10618 10617 10616 10615 10613 10612 10610 10609 10607 10606
10746 10746 10747 10745 10744 10745 10742 10741 10742 10741 10738 10738 10739 10738 10736 10734 10733 10732 10733 10734 10733 10732 10735 10735 10733 10730 10725 10724 10724 10717 10710 10710 10709 10709 10709 10709 10709 10708 10707 10706 10704 10702 10700 10698 10696 10693 10691 10689 10687 10685 10682 10680 10677 10674 10670 10668 10666 10663 10660 10657 10653 10650 10647 10644 10642 10639 10636 10633 10630 10627 10623 10620 10617 10614 10611 10608 10605 10602 10600 10599 10597 10597 10597 10596 10594 10593
10738 10738 10740 10740 10738 10737 10736 10735 10735 10735 10733 10730 10731 10732 10730 10728 10728 10726 10727 10727 10725 10726 10728 10728 10728 10727 10720 10716 10716 10712 10705 10702 10702 10701 10701 10700 10700 10699 10698 10696 10694 10693 10691 10689 10687 10684 10682 10680 10678 10676 10673 10671 10668 10665 10661 10658 10656 10653 10650 10648 10645 10642 10639 10635 10632 10630 10627 10624 10621 10618 10614 10611 10607 10604 10600 10597 10594 10590 10588 10584 10581 10581 10581 10580 10580 10579
10730 10730 10731 10733 10732 10729 10728 10729 10727 10727 10728 10724 10722 10724 10723 10722 10720 10720 10722 10722 10718 10718 10721 10722 10723 10723 10718 10712 10707 10702 10698 10697 10696 10695 10694 10693 10692 10691 10689 10687 10685 10684 10682 10680 10678 10676 10674 10671 10669 10666 10664 10661 10659 10656 10653 10649 10646 10644 10641 10639 10636 10633 10630 10626 10622 10619 10616 10613 10610 10607 10604 10601 10597 10594 10590 10586 10583 10579 10576 10571 10567 10564 10562 10562 10562 10561
10721 10722 10721 10723 10726 10722 10720 10722 10720 10717 10719 10718 10715 10715 10716 10714 10712 10711 10714 10716 10712 10710 10712 10714 10717 10717 10713 10711 10704 10693 10690 10691 10691 10689 10687 10686 10686 10684 10682 10680 10678 10676 10674 10672 10669 10667 10665 10662 10660 10657 10654 10651 10649 10647 10644 10641 10638 10634 10631 10628 10625 10622 10619 10615 10611 10608 10605 10601 10598 10595 10591 10588 10585 10582 10579 10575 10571 10567 10563 10558 10553 10549 10546 10545 10544 10542
10711 10713 10713 10714 10716 10715 10713 10715 10713 10708 10708 10709 10707 10708 10707 10706 10705 10704 10705 10706 10705 10704 10703 10703 10709 10711 10706 10704 10698 10687 10684 10685 10684 10683 10681 10680 10679 10677 10675 10673 10670 10669 10666 10664 10662 10659 10656 10654 10650 10648 10645 10642 10640 10637 10634 10632 10628 10625 10621 10618 10614 10611 10607 10603 10599 10596 10592 10588 10585 10581 10578 10575 10571 10568 10565 10562 10558 10554 10550 10545 10540 10535 10532 10530 10529 10526
10703 10704 10706 10706 10705 10705 10706 10707 10706 10701 10699 10698 10697 10699 10699 10698 10697 10695 10695 10697 10697 10698 10697 10693 10698 10702 10698 10695 10689 10680 10678 10678 10677 10676 10674 10673 10671 10669 10667 10665 10662 10661 10658 10655 10654 10651 10647 10645 10641 10639 10636 10633 10630 10627 10624 10621 10618 10614 10611 10607 10604 10600 10596 10591 10587 10583 10579 10576 10573 10568 10565 10561 10557 10553 10550 10547 10544 10540 10536 10532 10527 10522 10517 10514 10512 10510
10695 10695 10698 10698 10696 10696 10697 10698 10696 10693 10692 10690 10689 10690 10689 10689 10688 10685 10685 10687 10687 10690 10689 10686 10690 10692 10687 10686 10681 10671 10669 10670 10668 10668 10666 10664 10663 10660 10658 10656 10653 10652 10650 10647 10645 10642 10638 10635 10632 10629 10626 10622 10619 10617 10613 10610 10606 10603 10600 10596 10592 10589 10584 10580 10575 10571 10567 10563 10560 10555 10550 10547 10542 10538 10535 10531 10528 10524 10519 10514 10511 10506 10501 10497 10493 10490
10687 10687 10688 10689 10688 10688 10689 10688 10684 10683 10684 10682 10681 10682 10681 10679 10677 10676 10675 10674 10677 10681 10677 10674 10681 10680 10672 10675 10673 10663 10660 10661 10660 10660 10658 10655 10654 10652 10649 10647 10645 10643 10641 10638 10635 10632 10629 10625 10622 10619 10616 10612 10609 10606 10603 10599 10595 10592 10588 10585 10580 10576 10572 10567 10562 10558 10553 10549 10545 10540 10535 10530 10526 10522 10518 10513 10509 10505 10500 10495 10490 10486 10481 10477 10474 10470
10678 10678 10680 10680 10678 10680 10681 10677 10673 10674 10676 10674 10672 10672 10672 10670 10668 10668 10665 10664 10668 10670 10665 10664 10668 10665 10659 10660 10660 10656 10653 10652 10650 10650 10650 10647 10645 10643 10640 10638 10636 10633 10631 10628 10625 10622 10618 10615 10611 10609 10606 10602 10599 10595 10592 10588 10585 10581 10577 10572 10567 10562 10558 10553 10547 10543 10538 10533 10529 10524 10519 10514 10510 10505 10500 10495 10489 10484 10479 10474 10469 10465 10461 10456 10453 10450
10668 10670 10672 10670 10669 10671 10671 10667 10663 10663 10666 10667 10664 10663 10663 10661 10660 10658 10656 10657 10656 10654 10658 10658 10651 10650 10653 10648 10643 10645 10646 10643 10641 10640 10640 10639 10636 10634 10631 10629 10626 10623 10620 10618 10615 10612 10608 10605 10601 10598 10596 10592 10588 10584 10581 10577 10573 10569 10565 10560 10553 10547 10542 10538 10533 10528 10523 10518 10512 10508 10503 10498 10493 10487 10481 10475 10469 10463 10458 10453 10448 10444 10440 10436 10433 10431
10657 10661 10662 10659 10658 10660 10660 10658 10655 10653 10655 10656 10655 10655 10655 10653 10652 10649 10648 10650 10644 10638 10648 10650 10636 10637 10647 10639 10628 10631 10634 10632 10632 10631 10631 10630 10627 10624 10622 10619 10616 10614 10611 10608 10605 10601 10598 10595 10591 10588 10584 10581 10577 10573 10570 10566 10561 10556 10551 10546 10539 10532 10527 10523 10519 10514 10508 10502 10496 10491 10485 10480 10474 10467 10460 10454 10448 10443 10437 10432 10427 10423 10420 10416 10413 10411
10643 10649 10653 10648 10648 10650 10648 10647 10645 10642 10644 10645 10644 10646 10646 10644 10644 10643 10642 10641 10632 10626 10635 10638 10628 10628 10635 10629 10621 10620 10620 10620 10621 10622 10622 10620 10618 10616 10612 10609 10607 10604 10602 10598 10594 10591 10587 10584 10581 10577 10573 10570 10566 10562 10558 10553 10548 10542 10537 10530 10523 10517 10512 10507 10503 10499 10492 10486 10480 10474 10467 10462 10455 10449 10442 10436 10430 10424 10417 10412 10407 10403 10400 10397 10393 10391
10630 10637 10640 10634 10637 10640 10638 10637 10635 10630 10631 10634 10634 10637 10638 10634 10635 10635 10633 10628 10618 10616 10625 10627 10621 10623 10623 10615 10610 10610 10610 10610 10609 10610 10612 10610 10609 10608 10603 10601 10598 10594 10592 10588 10584 10581 10578 10574 10571 10567 10563 10559 10555 10551 10547 10541 10535 10528 10522 10515 10509 10503 10498 10493 10488 10483 10477 10471 10464 10457 10451 10445 10439 10432 10426 10419 10412 10405 10398 10393 10388 10384 10381 10377 10374 10372
10621 10624 10626 10621 10621 10628 10631 10626 10619 10618 10619 10620 10625 10633 10631 10625 10625 10623 10618 10613 10607 10609 10616 10614 10611 10616 10615 10605 10599 10599 10600 10600 10599 10599 10600 10600 10599 10598 10594 10591 10588 10584 10581 10578 10574 10571 10568 10564 10561 10557 10553 10548 10544 10540 10535 10529 10522 10515 10509 10502 10496 10490 10484 10479 10474 10469 10462 10455 10449 10442 10436 10429 10423 10416 10409 10401 10393 10386 10380 10374 10370 10366 10363 10359 10356 10354
10612 10610 10613 10609 10603 10613 10623 10612 10603 10607 10606 10606 10621 10631 10622 10614 10613 10608 10602 10601 10599 10599 10602 10602 10602 10604 10603 10598 10594 10591 10589 10588 10588 10587 10587 10587 10587 10585 10582 10580 10577 10574 10570 10566 10564 10560 10557 10553 10549 10546 10542 10537 10532 10527 10522 10516 10510 10503 10497 10490 10483 10477 10471 10466 10460 10454 10447 10440 10434 10427 10421 10414 10407 10400 10391 10383 10375 10368 10362 10357 10352 10348 10345 10342 10339 10336
10600 10596 10599 10597 10589 10598 10610 10600 10591 10592 10590 10600 10622 10622 10607 10601 10599 10595 10594 10593 10590 10585 10585 10590 10593 10590 10589 10589 10588 10584 10580 10578 10576 10576 10575 10575 10574 10572 10570 10567 10564 10562 10559 10555 10553 10549 10545 10542 10538 10534 10531 10526 10521 10516 10509 10503 10497 10491 10484 10478 10471 10465 10458 10451 10445 10439 10433 10427 10420 10413 10406 10398 10390 10382 10373 10365 10357 10351 10345 10340 10336 10332 10328 10324 10321 10318
10589 10584 10584 10582 10574 10582 10594 10589 10577 10575 10584 10602 10612 10602 10594 10593 10590 10585 10585 10583 10577 10572 10572 10578 10579 10577 10577 10577 10576 10575 10573 10569 10566 10565 10564 10563 10561 10560 10558 10555 10552 10550 10547 10544 10541 10538 10533 10531 10527 10523 10519 10514 10509 10503 10497 10491 10485 10479 10472 10465 10458 10451 10444 10438 10432 10426 10420 10414 10407 10399 10392 10383 10374 10365 10356 10348 10341 10335 10329 10324 10320 10316 10312 10308 10305 10303
10579 10575 10570 10567 10562 10565 10575 10571 10560 10566 10586 10595 10591 10587 10589 10587 10582 10576 10572 10570 10566 10560 10562 10567 10565 10563 10565 10564 10563 10563 10562 10558 10555 10555 10554 10552 10550 10548 10545 10543 10541 10538 10536 10533 10529 10526 10522 10519 10516 10511 10507 10502 10497 10491 10485 10479 10472 10466 10459 10451 10444 10438 10432 10426 10420 10414 10408 10401 10393 10384 10376 10367 10357 10349 10341 10333 10327 10321 10315 10310 10305 10302 10298 10295 10291 10289
10565 10561 10557 10554 10550 10549 10554 10552 10546 10556 10574 10577 10577 10585 10585 10574 10569 10563 10556 10558 10559 10551 10551 10556 10551 10549 10553 10552 10550 10550 10548 10546 10544 10543 10543 10541 10538 10536 10533 10531 10529 10526 10524 10521 10517 10514 10511 10508 10504 10499 10494 10490 10485 10478 10473 10466 10459 10453 10446 10438 10432 10425 10420 10414 10407 10401 10394 10386 10378 10369 10360 10350 10341 10334 10328 10321 10314 10308 10302 10297 10293 10290 10286 10283 10279 10277
10547 10546 10544 10540 10537 10536 10537 10537 10536 10540 10552 10563 10570 10575 10572 10562 10556 10548 10540 10546 10551 10545 10544 10544 10538 10537 10540 10538 10537 10536 10533 10532 10531 10531 10533 10529 10524 10523 10520 10518 10518 10515 10511 10509 10505 10502 10500 10496 10491 10487 10482 10478 10472 10466 10460 10454 10447 10441 10434 10426 10419 10413 10407 10401 10394 10388 10380 10372 10364 10355 10346 10336 10329 10323 10317 10309 10303 10297 10291 10287 10283 10279 10276 10273 10270 10267
10532 10532 10529 10522 10522 10525 10521 10520 10523 10523 10534 10552 10558 10556 10556 10552 10544 10534 10525 10530 10541 10542 10537 10533 10528 10528 10528 10525 10524 10522 10520 10520 10516 10517 10523 10519 10510 10510 10510 10507 10506 10503 10499 10496 10493 10491 10488 10484 10479 10475 10470 10466 10460 10453 10447 10441 10435 10429 10422 10414 10407 10401 10396 10390 10383 10376 10368 10359 10351 10342 10333 10324 10318 10313 10306 10298 10292 10287 10282 10278 10274 10270 10267 10264 10261 10258
10520 10517 10513 10505 10506 10512 10507 10503 10505 10507 10518 10534 10538 10537 10541 10537 10528 10520 10510 10515 10532 10535 10527 10522 10520 10517 10515 10514 10513 10511 10510 10509 10503 10503 10512 10509 10499 10499 10500 10497 10494 10492 10487 10485 10483 10480 10477 10472 10467 10463 10458 10453 10447 10440 10434 10429 10424 10417 10410 10402 10395 10389 10384 10378 10371 10364 10356 10348 10339 10330 10321 10315 10309 10302 10295 10289 10284 10279 10274 10270 10266 10262 10258 10255 10253 10250
10508 10503 10499 10493 10491 10496 10493 10487 10487 10491 10500 10512 10516 10519 10523 10518 10511 10507 10499 10504 10519 10521 10514 10512 10509 10505 10504 10504 10502 10500 10499 10498 10493 10491 10497 10497 10491 10490 10490 10486 10483 10480 10476 10474 10472 10469 10466 10461 10456 10452 10446 10440 10433 10427 10421 10417 10412 10405 10397 10390 10383 10377 10372 10366 10359 10352 10344 10336 10327 10319 10312 10306 10300 10293 10287 10282 10276 10271 10267 10263 10258 10254 10250 10247 10245 10242
10494 10491 10487 10482 10479 10481 10477 10470 10470 10475 10481 10490 10495 10500 10502 10496 10490 10490 10490 10494 10501 10503 10501 10500 10497 10494 10494 10492 10490 10488 10487 10487 10484 10481 10481 10483 10482 10481 10479 10475 10472 10469 10466 10463 10460 10457 10454 10449 10444 10439 10433 10426 10420 10414 10409 10404 10399 10392 10385 10378 10372 10366 10360 10354 10347 10341 10334 10325 10317 10310 10304 10298 10292 10286 10280 10275 10270 10265 10260 10256 10252 10247 10243 10240 10238 10236
10479 10476 10473 10470 10470 10469 10462 10454 10455 10460 10466 10474 10477 10476 10478 10477 10471 10472 10477 10481 10483 10484 10485 10485 10484 10483 10482 10479 10477 10476 10476 10475 10472 10470 10470 10471 10471 10469 10466 10463 10460 10457 10455 10452 10449 10446 10443 10438 10432 10427 10420 10413 10407 10402 10397 10392 10387 10380 10374 10368 10362 10356 10350 10344 10338 10332 10324 10315 10308 10303 10297 10291 10285 10280 10274 10268 10264 10259 10254 10249 10246 10242 10238 10235 10232 10230
10461 10456 10455 10457 10457 10453 10449 10446 10444 10446 10453 10460 10459 10454 10457 10459 10455 10455 10461 10464 10466 10468 10467 10467 10469 10468 10466 10464 10462 10461 10462 10462 10461 10460 10459 10458 10456 10455 10452 10450 10448 10445 10443 10440 10437 10435 10432 10427 10421 10415 10408 10401 10395 10390 10385 10380 10375 10370 10364 10358 10353 10346 10341 10336 10330 10323 10314 10308 10302 10296 10290 10285 10279 10273 10268 10263 10258 10254 10250 10245 10242 10238 10234 10231 10228 10226
10441 10437 10437 10442 10440 10434 10435 10437 10435 10435 10440 10445 10443 10440 10441 10441 10439 10441 10444 10446 10448 10449 10449 10450 10452 10450 10448 10446 10445 10445 10447 10448 10448 10446 10444 10442 10442 10440 10438 10437 10435 10433 10431 10429 10426 10423 10419 10414 10409 10402 10395 10389 10383 10378 10373 10368 10365 10360 10354 10349 10343 10338 10333 10328 10321 10314 10307 10301 10296 10290 10284 10279 10273 10268 10264 10259 10254 10250 10246 10242 10238 10235 10231 10228 10225 10222
10419 10417 10417 10422 10422 10419 10419 10421 10423 10424 10428 10430 10430 10428 10426 10424 10425 10427 10428 10429 10429 10429 10432 10434 10434 10432 10430 10429 10429 10431 10432 10432 10431 10429 10428 10427 10427 10426 10424 10424 10422 10420 10418 10416 10413 10410 10406 10401 10396 10390 10383 10377 10371 10366 10361 10357 10354 10351 10345 10340 10335 10330 10325 10319 10312 10305 10300 10295 10289 10284 10279 10274 10269 10264 10259 10255 10251 10247 10243 10239 10236 10232 10229 10226 10222 10219
10398 10396 10397 10402 10408 10408 10404 10406 10410 10411 10412 10413 10413 10412 10411 10410 10411 10413 10413 10414 10414 10414 10415 10416 10414 10415 10415 10415 10415 10416 10416 10416 10415 10413 10412 10412 10412 10412 10412 10410 10408 10407 10405 10403 10400 10397 10393 10388 10383 10377 10371 10366 10360 10355 10351 10348 10345 10342 10337 10332 10328 10323 10318 10311 10304 10299 10294 10289 10283 10279 10274 10269 10264 10260 10256 10253 10249 10244 10241 10238 10234 10231 10227 10224 10220 10217
10381 10380 10380 10386 10393 10394 10392 10395 10398 10395 10393 10394 10392 10393 10395 10395 10395 10397 10399 10400 10401 10401 10400 10399 10399 10400 10401 10401 10400 10400 10399 10399 10398 10398 10398 10398 10398 10398 10398 10396 10395 10394 10392 10390 10387 10383 10379 10374 10369 10364 10359 10354 10349 10345 10342 10340 10337 10333 10329 10325 10321 10317 10310 10303 10298 10293 10288 10283 10278 10274 10269 10265 10261 10257 10254 10251 10247 10243 10240 10237 10234 10230 10227 10223 10220 10216
10368 10370 10371 10372 10374 10375 10378 10382 10380 10374 10373 10375 10373 10374 10378 10378 10380 10383 10385 10386 10387 10385 10384 10385 10385 10386 10387 10386 10385 10384 10382 10382 10383 10384 10385 10386 10386 10385 10384 10383 10383 10382 10379 10377 10374 10370 10366 10361 10356 10352 10348 10343 10339 10335 10333 10331 10328 10324 10320 10317 10313 10308 10302 10296 10293 10288 10282 10278 10273 10269 10266 10262 10259 10256 10253 10249 10245 10242 10240 10237 10234 10230 10227 10223 10220 10216
10353 10356 10360 10358 10353 10355 10362 10365 10361 10354 10353 10355 10355 10358 10362 10364 10366 10368 10369 10370 10372 10370 10369 10370 10369 10369 10371 10371 10369 10368 10368 10368 10370 10370 10372 10373 10373 10372 10371 10371 10370 10368 10366 10364 10360 10356 10353 10349 10344 10341 10337 10332 10329 10327 10324 10322 10319 10315 10312 10310 10305 10299 10294 10291 10287 10282 10277 10273 10269 10265 10263 10260 10257 10255 10252 10248 10245 10243 10241 10238 10235 10231 10228 10225 10222 10219
10332 10333 10339 10337 10336 10343 10349 10347 10341 10335 10333 10334 10340 10347 10351 10351 10351 10352 10353 10356 10358 10356 10355 10354 10353 10353 10354 10354 10354 10354 10354 10355 10356 10357 10359 10360 10359 10358 10358 10357 10357 10356 10353 10350 10347 10343 10340 10336 10333 10331 10327 10323 10321 10319 10316 10313 10310 10307 10305 10302 10297 10291 10288 10285 10281 10276 10272 10269 10265 10263 10260 10258 10256 10255 10251 10248 10246 10245 10242 10240 10237 10234 10231 10228 10225 10223
10311 10314 10317 10316 10321 10330 10332 10325 10318 10316 10318 10322 10328 10336 10340 10338 10337 10339 10341 10343 10343 10342 10342 10342 10340 10340 10340 10340 10341 10341 10341 10342 10344 10345 10346 10346 10345 10345 10345 10344 10344 10343 10340 10337 10334 10330 10328 10325 10323 10320 10317 10314 10313 10310 10308 10305 10302 10300 10298 10294 10289 10285 10282 10279 10275 10271 10268 10265 10263 10261 10259 10258 10257 10254 10251 10249 10248 10246 10244 10242 10240 10236 10233 10231 10228 10227